Location: Unnamed
(47.6578°N, 23.5640°E)
Time: 23:20:00
(UTC+03:00)

ISS - Pass Details

Date: 26 April 2020
Orbit: 418 x 421 km, 51.6° (Epoch: 08 May)

Event Time Altitude Azimuth Distance (km) Brightness Sun altitude
Exits shadow 05:23:17 - 187° (S) 2,169 -0.5 -8.8°
Reaches altitude 10° 05:25:51 10° 159° (SSE) 1,490 -1.1 -8.5°
Maximum altitude 05:27:15 12° 134° (SE) 1,366 -1.0 -8.3°
Drops below altitude 10° 05:28:40 10° 109° (ESE) 1,496 -0.3 -8.1°
Sets 05:31:47 0° 77° (ENE) 2,367 1.8 -7.6°
